HAL11 PHOG-PHMK

Flight info

Callsign HAL11
Flight time 1h 12m
Altitude 10000
Route OGG V6 BLUSH V8 MKK
Aircraft DHC6/L-SDFGR/C

Departure

Time 2026-04-20 23:25
Airport Kahului International Airport (PHOG)

Arrival

Time 2026-04-21 00:37
Airport Molokai Airport (PHMK)
Time Latitude Longitude Altitude Speed Heading
2026-04-20 23:21 20.89021 -156.43899 42 ft 0 kts 304°
2026-04-20 23:22 20.89029 -156.43896 42 ft 1 kts 86°
2026-04-20 23:23 20.89015 -156.43878 42 ft 5 kts 134°
2026-04-20 23:23 20.88985 -156.43835 42 ft 9 kts 104°
2026-04-20 23:23 20.88986 -156.43766 42 ft 10 kts 86°
2026-04-20 23:23 20.88984 -156.43694 42 ft 10 kts 104°
2026-04-20 23:24 20.88966 -156.43619 42 ft 11 kts 72°
2026-04-20 23:24 20.89012 -156.43563 42 ft 10 kts 36°
2026-04-20 23:24 20.89092 -156.43502 42 ft 33 kts 35°
2026-04-20 23:24 20.89455 -156.43232 45 ft 91 kts 35°
2026-04-20 23:25 20.90041 -156.42792 358 ft 95 kts 37°
2026-04-20 23:25 20.90570 -156.42405 758 ft 103 kts 39°
2026-04-20 23:25 20.90931 -156.41706 992 ft 118 kts 73°
2026-04-20 23:25 20.91108 -156.40766 945 ft 136 kts 76°
2026-04-20 23:26 20.91284 -156.39759 1072 ft 139 kts 76°
2026-04-20 23:26 20.91460 -156.38732 1176 ft 142 kts 77°
2026-04-20 23:26 20.91634 -156.37691 1307 ft 142 kts 74°
2026-04-20 23:26 20.91997 -156.36718 1350 ft 142 kts 63°
2026-04-20 23:27 20.92428 -156.35763 1372 ft 143 kts 62°
2026-04-20 23:27 20.92902 -156.34820 1370 ft 145 kts 60°
2026-04-20 23:27 20.93272 -156.33810 1346 ft 148 kts 77°
2026-04-20 23:27 20.93285 -156.32701 1442 ft 152 kts 93°
2026-04-20 23:28 20.93085 -156.31598 1565 ft 150 kts 107°
2026-04-20 23:28 20.92486 -156.30687 1683 ft 153 kts 132°
2026-04-20 23:28 20.91697 -156.29944 1795 ft 151 kts 135°
2026-04-20 23:28 20.90920 -156.29179 1859 ft 152 kts 133°
2026-04-20 23:29 20.90142 -156.28414 1959 ft 151 kts 133°
2026-04-20 23:29 20.89553 -156.27519 1908 ft 150 kts 97°
2026-04-20 23:29 20.90095 -156.26637 1604 ft 160 kts 13°
2026-04-20 23:29 20.91205 -156.26548 1247 ft 158 kts 17°
2026-04-20 23:30 20.92096 -156.26025 727 ft 147 kts 28°
2026-04-20 23:30 20.93069 -156.25687 317 ft 137 kts 19°
2026-04-20 23:30 20.93612 -156.25114 263 ft 109 kts 81°
2026-04-20 23:30 20.93447 -156.24380 272 ft 94 kts 132°
2026-04-20 23:31 20.93136 -156.24229 176 ft 0 kts 301°
2026-04-20 23:31 20.89021 -156.43899 42 ft 0 kts 304°
2026-04-20 23:33 20.89023 -156.43901 42 ft 1 kts 335°
2026-04-20 23:33 20.89029 -156.43899 42 ft 1 kts 51°
2026-04-20 23:33 20.89027 -156.43890 42 ft 2 kts 118°
2026-04-20 23:34 20.89016 -156.43867 42 ft 5 kts 112°
2026-04-20 23:34 20.89007 -156.43823 42 ft 7 kts 98°
2026-04-20 23:34 20.88998 -156.43763 42 ft 9 kts 101°
2026-04-20 23:34 20.88973 -156.43695 42 ft 11 kts 125°
2026-04-20 23:35 20.88945 -156.43620 41 ft 11 kts 59°
2026-04-20 23:35 20.89241 -156.43392 44 ft 65 kts 34°
2026-04-20 23:35 20.89689 -156.43057 57 ft 87 kts 35°
2026-04-20 23:36 20.90196 -156.42671 66 ft 94 kts 34°
2026-04-20 23:36 20.90682 -156.42257 324 ft 72 kts 47°
2026-04-20 23:36 20.90993 -156.41818 652 ft 86 kts 55°
2026-04-20 23:36 20.91354 -156.41216 929 ft 99 kts 59°
2026-04-20 23:37 20.91716 -156.40492 1001 ft 123 kts 64°
2026-04-20 23:37 20.92012 -156.39594 1154 ft 129 kts 72°
2026-04-20 23:37 20.92247 -156.38645 1262 ft 135 kts 73°
2026-04-20 23:37 20.92475 -156.37660 1352 ft 139 kts 75°
2026-04-20 23:38 20.92644 -156.36649 1522 ft 139 kts 78°
2026-04-20 23:38 20.92796 -156.35622 1686 ft 138 kts 79°
2026-04-20 23:38 20.92910 -156.34599 1822 ft 140 kts 82°
2026-04-20 23:38 20.92998 -156.33554 1938 ft 141 kts 84°
2026-04-20 23:39 20.93063 -156.32505 2095 ft 143 kts 86°
2026-04-20 23:39 20.93103 -156.31420 2201 ft 148 kts 88°
2026-04-20 23:39 20.93107 -156.30332 2331 ft 148 kts 90°
2026-04-20 23:39 20.93072 -156.29213 2369 ft 151 kts 95°
2026-04-20 23:40 20.92896 -156.28104 2464 ft 152 kts 102°
2026-04-20 23:40 20.92637 -156.26988 2470 ft 156 kts 104°
2026-04-20 23:40 20.92307 -156.25871 2468 ft 160 kts 109°
2026-04-20 23:40 20.91896 -156.24748 2454 ft 165 kts 112°
2026-04-20 23:41 20.91402 -156.23631 2360 ft 168 kts 116°
2026-04-20 23:41 20.90855 -156.22533 2266 ft 166 kts 119°
2026-04-20 23:41 20.90294 -156.21461 2133 ft 163 kts 121°
2026-04-20 23:41 20.89664 -156.20482 2062 ft 158 kts 126°
2026-04-20 23:42 20.89039 -156.19514 1955 ft 160 kts 122°
2026-04-20 23:42 20.88418 -156.18508 1824 ft 163 kts 122°
2026-04-20 23:42 20.87778 -156.17508 1718 ft 163 kts 123°
2026-04-20 23:42 20.87132 -156.16521 1626 ft 162 kts 123°
2026-04-20 23:43 20.86480 -156.15539 1519 ft 161 kts 123°
2026-04-20 23:43 20.85817 -156.14566 1393 ft 164 kts 123°
2026-04-20 23:43 20.85166 -156.13557 1290 ft 165 kts 121°
2026-04-20 23:43 20.84522 -156.12531 1161 ft 167 kts 122°
2026-04-20 23:44 20.83861 -156.11518 1055 ft 166 kts 122°
2026-04-20 23:44 20.83218 -156.10482 916 ft 166 kts 119°
2026-04-20 23:44 20.82672 -156.09415 851 ft 162 kts 114°
2026-04-20 23:44 20.82181 -156.08348 862 ft 158 kts 114°
2026-04-20 23:45 20.81671 -156.07310 844 ft 158 kts 117°
2026-04-20 23:45 20.81074 -156.06317 830 ft 156 kts 123°
2026-04-20 23:45 20.80462 -156.05450 790 ft 138 kts 124°
2026-04-20 23:45 20.79922 -156.04693 708 ft 119 kts 124°
2026-04-20 23:46 20.79585 -156.03999 575 ft 93 kts 99°
2026-04-20 23:46 20.79555 -156.03372 397 ft 79 kts 89°
2026-04-20 23:46 20.79563 -156.02818 242 ft 72 kts 92°
2026-04-20 23:46 20.79564 -156.02300 157 ft 72 kts 93°
2026-04-20 23:47 20.79562 -156.01778 87 ft 63 kts 92°
2026-04-20 23:47 20.79564 -156.01371 87 ft 63 kts 91°
2026-04-20 23:47 20.79554 -156.00856 222 ft 70 kts 97°
2026-04-20 23:47 20.79290 -156.00484 369 ft 71 kts 169°
2026-04-20 23:48 20.78929 -156.00808 427 ft 81 kts 263°
2026-04-20 23:48 20.79243 -156.01319 380 ft 96 kts 341°
2026-04-20 23:48 20.79913 -156.01403 325 ft 104 kts 342°
2026-04-20 23:48 20.80245 -156.02010 440 ft 98 kts 258°
2026-04-20 23:49 20.79848 -156.02510 609 ft 87 kts 194°
2026-04-20 23:49 20.79296 -156.02355 669 ft 89 kts 134°
2026-04-20 23:49 20.79031 -156.01751 700 ft 92 kts 100°
2026-04-20 23:49 20.79045 -156.01073 750 ft 95 kts 91°
2026-04-20 23:50 20.79033 -156.00347 730 ft 96 kts 98°
2026-04-20 23:50 20.78735 -155.99753 802 ft 94 kts 141°
2026-04-20 23:50 20.78143 -155.99409 780 ft 98 kts 150°
2026-04-20 23:50 20.77535 -155.99093 799 ft 98 kts 156°
2026-04-20 23:51 20.76874 -155.99069 861 ft 99 kts 192°
2026-04-20 23:51 20.76300 -155.99480 902 ft 103 kts 226°
2026-04-20 23:51 20.76095 -156.00201 949 ft 107 kts 275°
2026-04-20 23:51 20.76489 -156.00830 1029 ft 105 kts 333°
2026-04-20 23:52 20.77196 -156.00891 1085 ft 101 kts 16°
2026-04-20 23:52 20.77845 -156.00618 1142 ft 100 kts 33°
2026-04-20 23:52 20.78438 -156.00252 1226 ft 98 kts 35°
2026-04-20 23:52 20.79051 -155.99908 1269 ft 101 kts 29°
2026-04-20 23:53 20.79716 -155.99690 1340 ft 102 kts 13°
2026-04-20 23:53 20.80435 -155.99760 1369 ft 106 kts 344°
2026-04-20 23:53 20.81018 -156.00247 1380 ft 111 kts 303°
2026-04-20 23:53 20.81155 -156.01023 1387 ft 109 kts 255°
2026-04-20 23:54 20.80698 -156.01615 1383 ft 103 kts 198°
2026-04-20 23:54 20.80051 -156.01496 1367 ft 97 kts 137°
2026-04-20 23:54 20.79910 -156.00825 1355 ft 100 kts 73°
2026-04-20 23:54 20.80467 -156.00411 1340 ft 109 kts
2026-04-20 23:55 20.81115 -156.00798 1317 ft 113 kts 300°
2026-04-20 23:55 20.81049 -156.01572 1347 ft 105 kts 228°
2026-04-20 23:55 20.80572 -156.02107 1460 ft 99 kts 221°
2026-04-20 23:55 20.79998 -156.02444 1562 ft 93 kts 187°
2026-04-20 23:56 20.79379 -156.02394 1629 ft 91 kts 160°
2026-04-20 23:56 20.78801 -156.02088 1652 ft 92 kts 146°
2026-04-20 23:56 20.78280 -156.01699 1712 ft 92 kts 143°
2026-04-20 23:56 20.77735 -156.01332 1728 ft 94 kts 150°
2026-04-20 23:57 20.77122 -156.01089 1782 ft 94 kts 166°
2026-04-20 23:57 20.76459 -156.01068 1833 ft 97 kts 185°
2026-04-20 23:57 20.75824 -156.01333 1873 ft 101 kts 210°
2026-04-20 23:57 20.75260 -156.01751 1984 ft 94 kts 198°
2026-04-20 23:58 20.74630 -156.01707 2005 ft 93 kts 149°
2026-04-20 23:58 20.74317 -156.01145 2086 ft 96 kts 95°
2026-04-20 23:58 20.74605 -156.00523 2208 ft 96 kts 44°
2026-04-20 23:58 20.75271 -156.00306 2290 ft 103 kts 18°
2026-04-20 23:59 20.75803 -155.99841 2264 ft 102 kts 72°
2026-04-20 23:59 20.75748 -155.99126 2204 ft 100 kts 117°
2026-04-20 23:59 20.75336 -155.98518 2149 ft 98 kts 130°
2026-04-20 23:59 20.74859 -155.98102 1920 ft 81 kts 153°
2026-04-21 00:00 20.74305 -155.97982 1421 ft 83 kts 174°
2026-04-21 00:00 20.73736 -155.98029 951 ft 83 kts 188°
2026-04-21 00:00 20.73210 -155.98264 548 ft 81 kts 209°
2026-04-21 00:00 20.72761 -155.98590 244 ft 73 kts 216°
2026-04-21 00:01 20.72355 -155.98968 406 ft 74 kts 216°
2026-04-21 00:01 20.71877 -155.99255 543 ft 79 kts 197°
2026-04-21 00:01 20.71312 -155.99350 694 ft 79 kts 168°
2026-04-21 00:01 20.70936 -155.98930 748 ft 89 kts 102°
2026-04-21 00:02 20.71176 -155.98388 937 ft 90 kts 34°
2026-04-21 00:02 20.71812 -155.98548 934 ft 102 kts 326°
2026-04-21 00:02 20.72443 -155.98825 1018 ft 101 kts 357°
2026-04-21 00:02 20.73140 -155.98788 1124 ft 99 kts 12°
2026-04-21 00:03 20.73820 -155.98697 1241 ft 98 kts 13°
2026-04-21 00:03 20.74502 -155.98626 1346 ft 102 kts 13°
2026-04-21 00:03 20.75174 -155.98436 1471 ft 98 kts 26°
2026-04-21 00:03 20.75873 -155.98333 1530 ft 105 kts 357°
2026-04-21 00:04 20.76394 -155.98830 1562 ft 106 kts 279°
2026-04-21 00:04 20.76091 -155.99423 1664 ft 96 kts 198°
2026-04-21 00:04 20.75542 -155.99254 1776 ft 84 kts 128°
2026-04-21 00:04 20.75066 -155.98837 1866 ft 89 kts 156°
2026-04-21 00:05 20.74462 -155.98809 2030 ft 93 kts 189°
2026-04-21 00:05 20.73830 -155.99054 2062 ft 97 kts 200°
2026-04-21 00:05 20.73191 -155.99315 2071 ft 98 kts 193°
2026-04-21 00:05 20.72540 -155.99500 2120 ft 97 kts 191°
2026-04-21 00:06 20.71894 -155.99716 2162 ft 98 kts 197°
2026-04-21 00:06 20.71304 -156.00094 2241 ft 101 kts 217°
2026-04-21 00:06 20.70886 -156.00715 2277 ft 107 kts 245°
2026-04-21 00:06 20.70847 -156.01503 2315 ft 109 kts 279°
2026-04-21 00:07 20.70693 -156.02241 2381 ft 101 kts 220°
2026-04-21 00:07 20.70049 -156.02402 2391 ft 102 kts 182°
2026-04-21 00:07 20.69429 -156.02713 2508 ft 102 kts 222°
2026-04-21 00:07 20.68814 -156.03035 2453 ft 105 kts 168°
2026-04-21 00:08 20.68128 -156.02970 2437 ft 104 kts 207°
2026-04-21 00:08 20.67782 -156.03728 2302 ft 134 kts 270°
2026-04-21 00:08 20.68181 -156.04714 2272 ft 153 kts 304°
2026-04-21 00:08 20.68844 -156.05475 2820 ft 128 kts 329°
2026-04-21 00:09 20.69600 -156.05804 3344 ft 112 kts 347°
2026-04-21 00:09 20.70349 -156.05981 3795 ft 110 kts 353°
2026-04-21 00:09 20.71130 -156.05952 4039 ft 122 kts 15°
2026-04-21 00:09 20.71986 -156.05779 4336 ft 128 kts 15°
2026-04-21 00:10 20.72904 -156.05770 4515 ft 139 kts 351°
2026-04-21 00:10 20.73769 -156.06166 4895 ft 133 kts 333°
2026-04-21 00:10 20.74507 -156.06787 5151 ft 138 kts 311°
2026-04-21 00:10 20.74986 -156.07670 5415 ft 138 kts 297°
2026-04-21 00:11 20.75412 -156.08605 5608 ft 142 kts 294°
2026-04-21 00:11 20.75719 -156.09598 5865 ft 140 kts 280°
2026-04-21 00:11 20.75720 -156.10602 6128 ft 133 kts 268°
2026-04-21 00:11 20.75776 -156.11608 6273 ft 138 kts 276°
2026-04-21 00:12 20.75939 -156.12623 6487 ft 138 kts 282°
2026-04-21 00:12 20.76216 -156.13616 6665 ft 142 kts 289°
2026-04-21 00:12 20.76452 -156.14277 6765 ft 145 kts 291°
2026-04-21 00:12 20.76829 -156.15283 6915 ft 148 kts 290°
2026-04-21 00:13 20.77176 -156.16343 6962 ft 154 kts 288°
2026-04-21 00:13 20.77565 -156.17388 7212 ft 146 kts 292°
2026-04-21 00:13 20.77974 -156.18379 7322 ft 151 kts 296°
2026-04-21 00:13 20.78517 -156.19388 7307 ft 161 kts 302°
2026-04-21 00:14 20.79168 -156.20426 7206 ft 171 kts 303°
2026-04-21 00:14 20.79809 -156.21486 7263 ft 169 kts 302°
2026-04-21 00:14 20.80447 -156.22532 7339 ft 166 kts 302°
2026-04-21 00:14 20.81004 -156.23605 7377 ft 166 kts 294°
2026-04-21 00:15 20.81344 -156.24798 7354 ft 170 kts 278°
2026-04-21 00:15 20.81298 -156.26030 7453 ft 164 kts 255°
2026-04-21 00:15 20.80808 -156.27122 7454 ft 162 kts 244°
2026-04-21 00:15 20.80755 -156.28374 7073 ft 181 kts 279°
2026-04-21 00:16 20.81018 -156.29633 7245 ft 167 kts 282°
2026-04-21 00:16 20.81208 -156.30857 7262 ft 166 kts 276°
2026-04-21 00:16 20.81364 -156.32073 7301 ft 165 kts 279°
2026-04-21 00:16 20.81542 -156.33302 7230 ft 170 kts 278°
2026-04-21 00:17 20.81805 -156.34556 7142 ft 176 kts 288°
2026-04-21 00:17 20.82402 -156.35664 7228 ft 166 kts 307°
2026-04-21 00:17 20.83107 -156.36644 7236 ft 170 kts 304°
2026-04-21 00:17 20.83726 -156.37723 7223 ft 170 kts 300°
2026-04-21 00:18 20.84351 -156.38828 7064 ft 177 kts 301°
2026-04-21 00:18 20.84979 -156.39969 6950 ft 178 kts 298°
2026-04-21 00:18 20.85590 -156.41114 6884 ft 177 kts 299°
2026-04-21 00:18 20.86209 -156.42242 6853 ft 174 kts 299°
2026-04-21 00:19 20.86810 -156.43368 6736 ft 178 kts 299°
2026-04-21 00:19 20.87422 -156.44515 6665 ft 177 kts 297°
2026-04-21 00:19 20.87925 -156.45718 6549 ft 178 kts 290°
2026-04-21 00:19 20.88378 -156.46948 6499 ft 176 kts 292°
2026-04-21 00:20 20.88868 -156.48148 6373 ft 176 kts 293°
2026-04-21 00:20 20.89390 -156.49333 6406 ft 170 kts 295°
2026-04-21 00:20 20.89903 -156.50425 6435 ft 169 kts 297°
2026-04-21 00:20 20.90467 -156.51538 6334 ft 173 kts 296°
2026-04-21 00:21 20.91024 -156.52670 6302 ft 172 kts 299°
2026-04-21 00:21 20.91621 -156.53757 6367 ft 167 kts 300°
2026-04-21 00:21 20.92221 -156.54821 6399 ft 167 kts 300°
2026-04-21 00:21 20.92795 -156.55896 6403 ft 167 kts 298°
2026-04-21 00:22 20.93355 -156.57003 6309 ft 172 kts 297°
2026-04-21 00:22 20.93923 -156.58123 6331 ft 168 kts 297°
2026-04-21 00:22 20.94420 -156.59238 6385 ft 166 kts 291°
2026-04-21 00:22 20.94823 -156.60412 6293 ft 171 kts 290°
2026-04-21 00:23 20.95255 -156.61599 6241 ft 171 kts 291°
2026-04-21 00:23 20.95749 -156.62744 6337 ft 165 kts 296°
2026-04-21 00:23 20.96300 -156.63791 6449 ft 163 kts 301°
2026-04-21 00:23 20.96923 -156.64830 6419 ft 168 kts 303°
2026-04-21 00:24 20.97584 -156.65856 6435 ft 167 kts 305°
2026-04-21 00:24 20.98260 -156.66855 6485 ft 165 kts 305°
2026-04-21 00:24 20.98966 -156.67843 6468 ft 167 kts 308°
2026-04-21 00:24 20.99601 -156.68854 6584 ft 162 kts 300°
2026-04-21 00:25 21.00182 -156.69923 6423 ft 173 kts 301°
2026-04-21 00:25 21.00804 -156.71014 6540 ft 163 kts 299°
2026-04-21 00:25 21.01270 -156.72082 6673 ft 160 kts 289°
2026-04-21 00:25 21.01711 -156.73222 6521 ft 171 kts 297°
2026-04-21 00:26 21.02357 -156.74295 6495 ft 172 kts 305°
2026-04-21 00:26 21.03082 -156.75318 6418 ft 174 kts 309°
2026-04-21 00:26 21.03921 -156.76262 6389 ft 174 kts 315°
2026-04-21 00:26 21.04805 -156.77136 6363 ft 173 kts 318°
2026-04-21 00:27 21.05715 -156.77979 6340 ft 173 kts 319°
2026-04-21 00:27 21.06626 -156.78836 6242 ft 176 kts 317°
2026-04-21 00:27 21.07524 -156.79727 6159 ft 177 kts 316°
2026-04-21 00:27 21.08361 -156.80693 6008 ft 181 kts 308°
2026-04-21 00:28 21.09063 -156.81819 5797 ft 184 kts 297°
2026-04-21 00:28 21.09585 -156.83067 5582 ft 183 kts 291°
2026-04-21 00:28 21.09999 -156.84352 5395 ft 182 kts 286°
2026-04-21 00:28 21.10300 -156.85628 5233 ft 170 kts 283°
2026-04-21 00:29 21.10609 -156.86756 5111 ft 140 kts 297°
2026-04-21 00:29 21.11444 -156.87161 3719 ft 177 kts
2026-04-21 00:29 21.12650 -156.87493 2600 ft 182 kts 332°
2026-04-21 00:29 21.13843 -156.87708 1891 ft 173 kts 359°
2026-04-21 00:30 21.15043 -156.87814 1123 ft 173 kts 352°
2026-04-21 00:30 21.16177 -156.88070 647 ft 159 kts 348°
2026-04-21 00:30 21.17190 -156.88365 391 ft 143 kts 332°
2026-04-21 00:30 21.17765 -156.89140 176 ft 131 kts 288°
2026-04-21 00:31 21.17956 -156.90084 91 ft 128 kts 273°
2026-04-21 00:31 21.17975 -156.91017 59 ft 122 kts 269°
2026-04-21 00:31 21.17992 -156.91919 40 ft 120 kts 272°
2026-04-21 00:31 21.18036 -156.92792 43 ft 116 kts 273°
2026-04-21 00:32 21.18084 -156.93618 106 ft 109 kts 272°
2026-04-21 00:32 21.18155 -156.94412 194 ft 106 kts 277°
2026-04-21 00:32 21.18232 -156.95180 355 ft 101 kts 269°
2026-04-21 00:32 21.18288 -156.95930 477 ft 104 kts 276°
2026-04-21 00:33 21.18409 -156.96702 633 ft 105 kts 279°
2026-04-21 00:33 21.18579 -156.97472 792 ft 109 kts 282°
2026-04-21 00:33 21.18780 -156.98261 922 ft 111 kts 281°
2026-04-21 00:33 21.18935 -156.99030 1190 ft 105 kts 274°
2026-04-21 00:34 21.18857 -156.99813 1358 ft 108 kts 248°
2026-04-21 00:34 21.18616 -157.00596 1528 ft 113 kts 248°
2026-04-21 00:34 21.18330 -157.01404 1630 ft 120 kts 245°
2026-04-21 00:34 21.18019 -157.02270 1686 ft 129 kts 250°
2026-04-21 00:35 21.17760 -157.03156 1917 ft 125 kts 250°
2026-04-21 00:35 21.17592 -157.04114 1894 ft 137 kts 262°
2026-04-21 00:35 21.17466 -157.05073 1730 ft 126 kts 253°
2026-04-21 00:35 21.17168 -157.05941 1460 ft 124 kts 243°
2026-04-21 00:36 21.16783 -157.06747 1184 ft 115 kts 237°
2026-04-21 00:36 21.16411 -157.07415 899 ft 95 kts 234°
2026-04-21 00:36 21.16099 -157.07990 711 ft 83 kts 235°
2026-04-21 00:36 21.15821 -157.08505 599 ft 76 kts 236°
2026-04-21 00:37 21.15567 -157.08978 481 ft 72 kts 236°
2026-04-21 00:37 21.15344 -157.09392 461 ft 46 kts 241°
2026-04-21 00:37 21.15272 -157.09532 459 ft 12 kts 244°
2026-04-21 00:37 21.15275 -157.09573 459 ft 7 kts 19°
2026-04-21 00:38 21.15315 -157.09529 460 ft 9 kts 47°
2026-04-21 00:38 21.15363 -157.09471 460 ft 11 kts 43°
2026-04-21 00:38 21.15421 -157.09401 460 ft 14 kts 58°
2026-04-21 00:38 21.15469 -157.09310 461 ft 10 kts 60°
2026-04-21 00:39 21.15501 -157.09255 461 ft 10 kts 66°
2026-04-21 00:39 21.15533 -157.09251 461 ft 8 kts 279°
2026-04-21 00:39 21.15552 -157.09258 460 ft 2 kts 63°
2026-04-21 00:39 21.15556 -157.09251 460 ft 0 kts 68°